Anchorage Merrill, AK

5:46 PM AKDT on April 27, 2017 (GMT -0800)
Merrill

Weather History for PAMR - November, 2012

Change the Weather History Date:

Saturday, November 3, 2012

  Actual Average Record
Temperature  
Mean Temperature 24 °F -  
Max Temperature 30 °F 31 °F 42 °F (2002)
Min Temperature 19 °F 21 °F 0 °F (1999)
Degree Days  
Heating Degree Days 40    
Moisture  
Dew Point 16 °F    
Average Humidity 66    
Maximum Humidity 81    
Minimum Humidity 56    
Precipitation  
Precipitation 0.00 in - - ()
Sea Level Pressure  
Sea Level Pressure 29.35 in    
Wind  
Wind Speed 2 mph (NNE)    
Max Wind Speed 7 mph    
Max Gust Speed -    
Visibility 10 miles    
Events      
Averages and records for this station are not official NWS values.
T = Trace of Precipitation, MM = Missing Value Source: NWS Daily Summary

Daily Weather History Graph

Daily Weather History Graph

Search for Another Location

Airport or City:

Trip Planner

Search our weather history database for the weather conditions in past years. The results will help you decide how hot, cold, wet, or windy it might be!

Date:

Astronomy

Nov. 03, 2012 Rise Set
Actual Time 9:34 AM AKDT 5:50 PM AKDT
Civil Twilight 8:46 AM AKDT 6:38 PM AKDT
Nautical Twilight 7:54 AM AKDT 7:30 PM AKDT
Astronomical Twilight 7:04 AM AKDT 8:20 PM AKDT
Moon 9:11 PM AKDT (11/3) 2:17 PM AKDT (11/3)
Length of Visible Light 9h 51m
Length of Day
8h 15m
Waning Gibbous, 79% of the Moon is Illuminated
Nov 3
Waning Gibbous
Nov 6
Last Quarter
Nov 13
New
Nov 20
First Quarter
Nov 28
Full

Hourly Weather History & Observations

Time (AKDT) Temp. Windchill Dew Point Humidity Pressure Visibility Wind Dir Wind Speed Gust Speed Precip Events Conditions
12:53 AM 25.0 °F - 12.0 °F 58% 29.36 in 10.0 mi Calm Calm - N/A   Partly Cloudy
1:53 AM 26.1 °F 20.5 °F 14.0 °F 60% 29.36 in 10.0 mi NNE 4.6 mph - N/A   Clear
2:53 AM 25.0 °F 20.7 °F 15.1 °F 66% 29.36 in 10.0 mi North 3.5 mph - N/A   Partly Cloudy
3:53 AM 25.0 °F 19.3 °F 17.1 °F 72% 29.36 in 10.0 mi East 4.6 mph - N/A   Mostly Cloudy
4:53 AM 26.1 °F 20.5 °F 16.0 °F 66% 29.35 in 10.0 mi NE 4.6 mph - N/A   Mostly Cloudy
5:53 AM 26.1 °F 19.4 °F 17.1 °F 69% 29.35 in 10.0 mi NNE 5.8 mph - N/A   Scattered Clouds
6:53 AM 25.0 °F - 15.1 °F 66% 29.35 in 10.0 mi Calm Calm - N/A   Clear
7:53 AM 24.1 °F - 16.0 °F 71% 29.34 in 10.0 mi Calm Calm - N/A   Clear
8:53 AM 19.9 °F - 12.9 °F 74% 29.34 in 10.0 mi Calm Calm - N/A   Mostly Cloudy
9:53 AM 25.0 °F - 17.1 °F 72% 29.35 in 10.0 mi Calm Calm - N/A   Overcast
10:53 AM 28.0 °F 20.8 °F 17.1 °F 63% 29.35 in 10.0 mi North 6.9 mph - N/A   Overcast
11:53 AM 28.0 °F 21.7 °F 15.1 °F 58% 29.35 in 10.0 mi North 5.8 mph - N/A   Partly Cloudy
12:53 PM 28.9 °F 25.2 °F 16.0 °F 58% 29.36 in 10.0 mi North 3.5 mph - N/A   Mostly Cloudy
1:53 PM 28.9 °F 25.2 °F 16.0 °F 58% 29.36 in 10.0 mi North 3.5 mph - N/A   Overcast
2:53 PM 30.0 °F 24.1 °F 17.1 °F 59% 29.36 in 10.0 mi North 5.8 mph - N/A   Overcast
3:53 PM 30.0 °F 24.1 °F 16.0 °F 56% 29.35 in 10.0 mi North 5.8 mph - N/A   Mostly Cloudy
4:53 PM 28.0 °F - 16.0 °F 61% 29.35 in 10.0 mi Calm Calm - N/A   Scattered Clouds
5:53 PM 27.0 °F - 17.1 °F 66% 29.34 in 10.0 mi Calm Calm - N/A   Scattered Clouds
6:53 PM 25.0 °F - 16.0 °F 69% 29.35 in 10.0 mi Calm Calm - N/A   Partly Cloudy
7:53 PM 24.1 °F - 16.0 °F 71% 29.36 in 10.0 mi Calm Calm - N/A   Overcast
8:53 PM 25.0 °F 20.7 °F 16.0 °F 69% 29.36 in 10.0 mi North 3.5 mph - N/A   Clear
9:53 PM 19.9 °F - 15.1 °F 81% 29.37 in 10.0 mi Calm Calm - N/A   Scattered Clouds
10:53 PM 24.1 °F - 16.0 °F 71% 29.37 in 10.0 mi Calm Calm - N/A   Mostly Cloudy
11:53 PM 21.9 °F 17.2 °F 16.0 °F 78% 29.37 in 10.0 mi North 3.5 mph - N/A   Mostly Cloudy